User: anonymous   Login
Location: Franzen
(48.6167°N, 15.3833°E)
Time: 20:40:05
(UTC+00:00)
Language:

SeaSat 1 - Orbit

View from above orbital plane
View from above orbital plane
View from above satellite
View from above satellite

Ground track
Ground track

The orbit data is extracted from the following two-line orbital elements,

1 10967U 78064A   21172.60713391 -.00000062  00000-0  22122-4 0  9993
2 10967 107.9960 122.3228 0001396 254.5610 105.5380 14.43882965258107
Epoch (UTC): 21 June 2021 14:34:16
Eccentricity: 0.0001396
inclination: 107.9960°
perigee height: 745 km
apogee height: 746 km
right ascension of ascending node: 122.3228°
argument of perigee: 254.5610°
revolutions per day: 14.43882965
mean anomaly at epoch: 105.5380°
orbit number at epoch: 25810

The dashed part of the orbit path shows where the satellite is in the earth's shadow,  

DLR